Regional Weather Roundup
Issued by NWS

Home | Current Version | Previous Version | Text Only | Print | Product List | Glossary Off
Versions: 1 2 3 4 5 6 7 8 9 10 11 12 13 14 15 16 17 18 19 20 21 22 23 24 25 26 27 28 29 30 31 32 33 34 35 36 37 38 39 40 41 42 43 44 45 46 47 48 49 50

000
ASUS45 KSLC 030510
RWRUT

UTAH REGIONAL WEATHER ROUNDUP
NATIONAL WEATHER SERVICE SALT LAKE CITY UT
1100 PM MDT THU JUL 02 2015

UTZ001>011-023>025-030600-

NORTHERN UTAH

CITY           SKY/WX    TMP DP  RH WIND       PRES   REMARKS
BRIGHAM CITY   PTCLDY    84  49  29 CALM      30.00R
HILL AFB       PTCLDY    80  47  30 E10       30.04R
LOGAN          CLEAR     72  56  57 SW6       30.02R
OGDEN          PTCLDY    79  49  34 S8        30.00R
PROVO AIRPORT  PTCLDY    73  50  43 SE6       30.02S
SALT LAKE CITY MOCLDY    83  49  30 SE6       29.98R
VERNAL         PTCLDY    80  41  24 N7        30.06R
WENDOVER       PTCLDY    86  43  22 SE7       30.01R
HEBER CITY     PTCLDY    63  45  51 CALM      30.12R
WEST JORDAN    CLEAR     81  43  26 CALM      30.03R

$$

UTZ012>022-026-027-030600-

SOUTHERN/CENTRAL UTAH

CITY           SKY/WX    TMP DP  RH WIND       PRES   REMARKS
BLANDING       PTCLDY    74  53  48 NE6       30.20R
BRYCE CANYON   CLOUDY    61  52  72 W10       30.31R
CEDAR CITY     CLOUDY    73  48  41 SE9       30.16R
DELTA          CLEAR     84  43  24 MISG      30.05R
HANKSVILLE     PTCLDY    82  36  18 SE3       29.99R
MILFORD        CLOUDY    75  51  43 S6        30.08R
MOAB/CYNLANDS  CLEAR     80  46  30 W5        29.95R
PRICE          PTCLDY    80  31  16 W8        30.10R
ST GEORGE      PTCLDY    90  55  31 N3        29.93R
KANAB          CLOUDY    72  59  64 NE5       30.15R

$$

REGIONAL REPORTS     COLORADO/ARIZONA

CITY           SKY/WX    TMP DP  RH WIND       PRES   REMARKS
CRAIG, CO      PTCLDY    75  44  33 E15       30.17S
GRAND JUNCTION PTCLDY    81  45  28 CALM      29.98R
RIFLE          PTCLDY    74  43  32 SE15      30.07R
MONTROSE       PTCLDY    76  49  38 E8        30.12R
CORTEZ         MOCLDY    74  53  48 S13G33    30.20R
PAGE, AZ       CLOUDY    87  48  25 W3        30.00R
GRAND CANYON   CLOUDY    66  54  65 CALM      30.26R
KINGMAN        CLEAR     83  50  31 S9        29.99R
FLAGSTAFF      CLOUDY    66  54  65 W3        30.27S

$$

REGIONAL REPORTS    NEVADA/IDAHO/WYOMING

CITY           SKY/WX    TMP DP  RH WIND       PRES   REMARKS
LAS VEGAS, NV  PTCLDY    99  53  21 SW14      29.80R HX  96
ELY            MOCLDY    71  50  47 S3        30.23R
ELKO           MOCLDY    75  48  38 NW5       30.10S
POCATELLO, ID  CLEAR     73  43  33 SE6       30.01R
BURLEY         CLEAR     73  52  47 SW10      29.96S
EVANSTON, WY   MOCLDY    71  41  33 N8        30.25R
ROCK SPRINGS   PTCLDY    65  47  52 NE7       30.24R
KEMMERER       CLEAR     64  41  42 NE15      30.28R

$$


USA.gov is the U.S. government's official web portal to all federal, state and local government web resources and services.